Weather History for Gainesville, FL

Change the Weather History Date:

Friday, March 22, 2013

  Actual Average Record
Temperature  
Mean Temperature 55 °F 63 °F  
Max Temperature 71 °F 76 °F 94 °F (1907)
Min Temperature 39 °F 51 °F 27 °F (1960)
Degree Days  
Heating Degree Days 10 4  
Month to date heating degree days 204 111  
Since 1 July heating degree days 936 1145  
Cooling Degree Days 0 2  
Month to date cooling degree days 8 38  
Year to date cooling degree days 108 70  
Growing Degree Days 5 (Base 50)    
Moisture  
Dew Point 39 °F    
Average Humidity 61    
Maximum Humidity 89    
Minimum Humidity 33    
Precipitation  
Precipitation T in 0.13 in 1.50 in (1903)
Month to date precipitation 0.57 3.19  
Year to date precipitation 2.54 9.70  
Snow  
Snow 0.00 in 0.00 in 0.00 in ()
Month to date snowfall 0.0 0.0  
Since 1 July snowfall 0.0 0.0  
Snow Depth 0.00 in    
Sea Level Pressure  
Sea Level Pressure 30.00 in    
Wind  
Wind Speed 6 mph (ENE)    
Max Wind Speed 14 mph    
Max Gust Speed 22 mph    
Visibility 10 miles    
Events      
T = Trace of Precipitation, MM = Missing Value Source: NWS Daily Summary

Daily Weather History Graph

Daily Weather History Graph

Search for Another Location

Airport:

Trip Planner

Search our weather history database for the weather conditions in past years. The results will help you decide how hot, cold, wet, or windy it might be!

Date:

Astronomy

Mar. 22, 2013 Rise Set
Actual Time 7:30 AM EDT 7:41 PM EDT
Civil Twilight 7:06 AM EDT 8:05 PM EDT
Nautical Twilight 6:38 AM EDT 8:33 PM EDT
Astronomical Twilight 6:10 AM EDT 9:01 PM EDT
Moon 3:25 PM EDT (3/22) 4:11 AM EDT (3/22)
Length of Visible Light 12h 59m
Length of Day
12h 11m
Waxing Gibbous, 77% of the Moon is Illuminated
Mar 22
Waxing Gibbous
Mar 27
Full
Apr 3
Last Quarter
Apr 10
New
Apr 18
First Quarter

Hourly Weather History & Observations

Time (EDT) Temp. Windchill Dew Point Humidity Pressure Visibility Wind Dir Wind Speed Gust Speed Precip Events Conditions
12:53 AM 42.1 °F 40.2 °F 37.9 °F 85% 29.98 in 10.0 mi West 3.5 mph - N/A   Clear
1:53 AM 44.1 °F - 39.0 °F 82% 29.97 in 10.0 mi Calm Calm - N/A   Clear
2:53 AM 41.0 °F - 37.0 °F 86% 29.96 in 10.0 mi Calm Calm - N/A   Clear
3:53 AM 43.0 °F - 39.0 °F 86% 29.94 in 10.0 mi Calm Calm - N/A   Partly Cloudy
4:53 AM 42.1 °F - 39.0 °F 89% 29.96 in 10.0 mi Calm Calm - N/A   Partly Cloudy
5:53 AM 46.9 °F - 39.0 °F 74% 29.98 in 10.0 mi Calm Calm - N/A   Overcast
6:53 AM 48.0 °F - 35.1 °F 61% 30.00 in 10.0 mi Calm Calm - N/A   Mostly Cloudy
7:53 AM 46.9 °F - 33.1 °F 59% 30.04 in 10.0 mi Variable 3.5 mph - N/A   Mostly Cloudy
8:53 AM 50.0 °F - 32.0 °F 50% 30.04 in 10.0 mi NE 4.6 mph - N/A   Clear
9:53 AM 54.0 °F - 36.0 °F 51% 30.03 in 10.0 mi East 9.2 mph - N/A   Partly Cloudy
10:53 AM 57.9 °F - 37.0 °F 46% 30.06 in 10.0 mi East 8.1 mph - N/A   Scattered Clouds
11:53 AM 61.0 °F - 37.9 °F 42% 30.06 in 10.0 mi ENE 11.5 mph - N/A   Clear
12:53 PM 63.0 °F - 37.0 °F 38% 30.04 in 10.0 mi East 10.4 mph - N/A   Mostly Cloudy
1:53 PM 66.9 °F - 37.9 °F 34% 30.02 in 10.0 mi ESE 10.4 mph - N/A   Overcast
2:53 PM 69.1 °F - 39.9 °F 35% 29.98 in 10.0 mi East 10.4 mph - N/A   Partly Cloudy
3:53 PM 68.0 °F - 43.0 °F 40% 29.97 in 10.0 mi ENE 6.9 mph - 0.00 in   Overcast
4:53 PM 68.0 °F - 42.1 °F 39% 29.96 in 10.0 mi ENE 6.9 mph - N/A   Overcast
5:53 PM 66.9 °F - 43.0 °F 42% 29.96 in 10.0 mi East 6.9 mph - N/A   Overcast
6:53 PM 66.0 °F - 43.0 °F 43% 29.97 in 10.0 mi ENE 9.2 mph - N/A   Overcast
7:53 PM 61.0 °F - 43.0 °F 52% 29.99 in 10.0 mi ENE 6.9 mph - N/A   Clear
8:53 PM 59.0 °F - 42.1 °F 53% 30.01 in 10.0 mi East 8.1 mph - N/A   Scattered Clouds
9:53 PM 55.9 °F - 42.1 °F 60% 30.02 in 10.0 mi NE 6.9 mph - N/A   Partly Cloudy
10:53 PM 55.9 °F - 42.1 °F 60% 30.02 in 10.0 mi East 5.8 mph - N/A   Clear
11:53 PM 54.0 °F - 44.1 °F 69% 30.01 in 10.0 mi East 3.5 mph - N/A   Clear